Location: Clermont
(50.2608°N, 4.3172°E)
Time: 05:16:47
(UTC+00:00)

DMSP B5D2-2 - Pass Details

Date: 13 August 2020
Orbit: 791 x 805 km, 98.3° (Epoch: 23 September)

Event Time Altitude Azimuth Distance (km) Brightness Sun altitude
Rises 20:00:54 0° 13° (NNE) 3,307 7.6 -8.6°
Reaches altitude 10° 20:03:14 10° 12° (NNE) 2,375 6.9 -8.9°
Maximum altitude 20:08:28 76° 287° (WNW) 824 4.3 -9.6°
Drops below altitude 10° 20:13:42 10° 203° (SSW) 2,367 6.4 -10.3°
Sets 20:16:01 0° 202° (SSW) 3,295 7.1 -10.6°
